sat.trackr.live / text

‹ back to catalog

QIANFAN-99

NORAD 66041 · 2025-233J

PAYLOAD ACTIVE UNKNOWN

§ Identity

Operator
Country
PRC
Launch date
2025-10-17
Launch site
TAISC
Launch vehicle
Mass (kg)
RCS (m²)

External: N2YO · Heavens-Above · Gunter

§ Orbital elements

Epoch: 2026-09-20T15:10:34.012704Z

Period
106.58 min
Inclination
89.0061°
Eccentricity
0.0001490
Mean motion
13.51035864 rev/d
Perigee alt
1,067.3 km
Apogee alt
1,069.6 km
Semi-major
7,446.6 km
B*
9.9334e-5
RAAN
33.5488°
Arg perigee
107.9784°
Mean anomaly
252.1530°
Rev number
4,607

§ Raw data

QIANFAN-991 66041U 25233J   26263.63233811  .00000076  00000+0  99334-4 0  99922 66041  89.0061  33.5488 0001490 107.9784 252.1530 13.51035864 46075

JSON: /api/v1/satellites/66041 · /tle

For live sub-satellite position, see the globe view (requires WebGL).

§ Visibility from observer

Set your observer location to see the next 7 days of passes ≥ 10°. The values pass through the URL so the page stays shareable.

No JS? Fill the form by hand. The geolocation button needs JavaScript.